Regional Weather Roundup
Issued by NWS

Home | Current Version | Previous Version | Graphics & Text | Print | Product List | Glossary On
Versions: 1 2 3 4 5 6 7 8 9 10 11 12 13 14 15 16 17 18 19 20 21 22 23 24 25 26 27 28 29 30 31 32 33 34 35 36 37 38 39 40 41 42 43 44 45 46 47 48 49 50
515
ASUS45 KBOU 200107
RWRCO

WEATHER ROUNDUP FOR COLORADO
NATIONAL WEATHER SERVICE DENVER/BOULDER CO
600 PM MST SUN FEB 19 2017

NOTE: "FAIR" INDICATES FEW OR NO CLOUDS BELOW 12000 FEET WITH NO
SIGNIFICANT WEATHER AND/OR OBSTRUCTIONS TO VISIBILITY.

COZ001>005-013-030-031-200200-
...NORTHWEST COLORADO...

CITY           SKY/WX    TMP DP  RH WIND       PRES   REMARKS
CRAIG          LGT RAIN  35  32  88 W9        29.80R FOG     WCI  28
HAYDEN         CLOUDY    36  32  87 NW7       29.78R
MEEKER         LGT RAIN  38  34  85 SW12      29.80R
MOUNT WERNER   NOT AVBL
STEAMBOAT SPGS CLOUDY    34  33  95 SW5       29.78R WCI  30
WALDEN         NOT AVBL
$$

COZ006>008-011-200200-
...WEST CENTRAL VALLEYS...

CITY           SKY/WX    TMP DP  RH WIND       PRES   REMARKS
GRAND JUNCTION CLOUDY    43  42  97 N13       29.82R
MONTROSE       CLOUDY    45  30  55 CALM      29.84R
EAGLE          MOCLDY    39  30  70 SW13      29.80R
RIFLE          CLOUDY    40  35  83 W17       29.80R
DELTA          CLOUDY    47  35  63 E5        29.83R
NUCLA          CLOUDY    43  32  65 S8        29.88R
$$

COZ017>023-064>068-200200-
...SOUTHWEST COLORADO...

CITY           SKY/WX    TMP DP  RH WIND       PRES   REMARKS
DURANGO        FAIR      37  29  72 W9        29.88R
CORTEZ         CLOUDY    40  36  86 SW9       29.88R
PAGOSA SPRINGS MOCLDY    34  31  88 SW5       29.88S WCI  30
TELLURIDE      NOT AVBL
WOLF CREEK PAS SNOW      18  18 100 SW16G26   29.92R VSB<1/4 WCI   3
$$

COZ009-010-012-014-032>034-037-058>063-200200-
...CENTRAL COLORADO...

CITY           SKY/WX    TMP DP  RH WIND       PRES   REMARKS
ASPEN          CLOUDY    35  29  78 W3        29.79R
BUENA VISTA    CLOUDY    38  22  52 W21G33    29.75R
COPPER MTN     HVY SNOW  28  23  80 MISG      29.80R VSB 1/4
BERTHOUD PASS  HVY SNOW  19  10  68 N7G16     29.79F VSB<1/4 WCI  10
COTTONWOOD PAS CLOUDY    32  21  64 W25G39    29.76R WCI  19
GUNNISON       MOCLDY    36  24  62 W5        29.83R
KREMMLING      RAIN      39  36  87 W7        29.76R
LEADVILLE      LGT SNOW  26  22  84 NW7       29.78R FOG     WCI  18
MONARCH PASS   SNOW      19  18  93 MISG      29.92R VSB<1/4
SALIDA         CLOUDY    41  26  55 W21G33    29.83R
SUNLIGHT       NOT AVBL
WILKERSON PASS MOCLDY    27  19  74 SW15G21   29.79R WCI  15
$$

COZ069>075-200200-
...SAN LUIS VALLEY/SANGRE DE CRISTO MOUNTAINS...

CITY           SKY/WX    TMP DP  RH WIND       PRES   REMARKS
ALAMOSA        FAIR      34  26  72 SW16      29.79R WCI  24
LA VETA PASS   FAIR      28  19  69 NE23G39   29.80R WCI  14
SAGUACHE       FAIR      36  25  64 N12G26    29.77R
$$

COZ035-036-038>040-200200-
...NORTHERN COLORADO FRONT RANGE...

CITY           SKY/WX    TMP DP  RH WIND       PRES   REMARKS
DENVER INTL AP MOCLDY    54  24  31 S14       29.55S
DMNS CITY PARK   N/A     55  24  30 N14G24    29.58R
AURORA         MOCLDY    54  24  31 S13       29.57R
FRONT RANGE AP MOCLDY    57  27  30 S14G21    29.57R
ERIE MUNI ARPT CLOUDY    54  24  31 SE6       29.60R
BOULDER MUN AP MOCLDY    54  30  40 NW6       29.58R
CENTENNIAL     MOCLDY    52  24  33 S10       29.57R
BROOMFIELD     LGT RAIN  52  34  50 CALM      29.60R
FORT COLLINS   FAIR      54  31  41 NW14      29.60R
LONGMONT       CLOUDY    56  32  40 NW14      29.60R
$$

COZ041-046-047-076>085-087-088-200200-
...PIKES PEAK/PALMER DIVIDE AND SOUTHERN FOOTHILLS...

CITY           SKY/WX    TMP DP  RH WIND       PRES   REMARKS
COLO. SPRINGS  MOCLDY    51  22  31 S17       29.63R
A. F. ACADEMY  FAIR      50  23  34 CALM      29.62R
SCHRIEVER AFB  FAIR      49  19  30 S18G25    29.64R
ELLICOTT       FAIR     N/A N/A N/A S16       29.63S
FALCON         FAIR      47  20  33 S13       29.65R
FORT CARSON    FAIR      51  20  29 S16       29.62R
LIMON          FAIR      53  22  29 S17G25    29.63R
MONUMENT HILL  FAIR      45  19  36 S14       29.64R
TRINIDAD       FAIR      51  20  29 S18       29.70R
$$

COZ042>045-048>051-090-091-200200-
...NORTHEAST COLORADO...

CITY           SKY/WX    TMP DP  RH WIND       PRES   REMARKS
GREELEY ARPT   FAIR      52  27  38 NW10      29.58R
AKRON          FAIR      59  26  28 S28G39    29.58R
BURLINGTON     FAIR      61  30  31 S30G38    29.64F
WRAY           NOT AVBL
STERLING       FAIR      57  34  41 SW6       29.55R
HOLYOKE        FAIR      63  32  31 S23G29    29.57S
FORT MORGAN    FAIR      57  31  38 S10       29.56R
$$

COZ086-089-092>099-200200-
...SOUTHEAST COLORADO...

CITY           SKY/WX    TMP DP  RH WIND       PRES   REMARKS
PUEBLO         FAIR      58  25  28 SW17G26   29.61R
LA JUNTA       FAIR      58  30  34 S16       29.65R
LAMAR          FAIR      60  30  32 S23G33    29.66R
SPRINGFIELD      N/A     52  33  48 S17       29.74R
$$




USA.gov is the U.S. government's official web portal to all federal, state and local government web resources and services.